Wind_Speed
12 14 15 16 16 17 18 20 21 23 24 25 26 27 28 29 29 30 30 29 27 27 29 32 34 35 36 36 36 37 37 39 39 37 37 36 35 34 33 32 32 31 30
14 15 16 17 18 18 20 22 24 26 27 29 30 31 32 32 33 33 34 34 33 32 32 33 35 37 39 39 39 40 40 40 43 43 41 39 39 39 38 37 36 35 34
16 17 18 18 19 20 21 23 25 27 28 29 32 32 33 33 34 34 35 36 37 38 36 37 38 39 40 41 41 42 44 43 44 46 46 45 44 42 41 40 40 40 40
17 18 20 20 21 23 24 26 27 29 30 31 32 33 34 34 34 33 33 33 33 33 35 36 37 40 42 43 43 42 44 46 46 49 50 49 48 48 47 46 45 44 43
17 19 21 21 22 24 26 27 28 30 30 32 34 36 36 34 34 34 33 33 32 32 32 31 31 32 35 39 44 45 46 47 48 50 51 53 54 53 52 51 50 50 49
16 16 17 18 20 22 24 25 27 27 29 31 32 34 33 32 33 36 36 33 33 32 32 33 33 33 31 31 32 37 44 48 50 52 54 54 55 56 56 55 54 53 53
11 12 13 15 16 18 19 21 23 25 26 26 30 34 34 35 27 31 25 27 36 38 35 34 34 34 35 33 31 31 32 33 38 42 49 54 54 56 58 58 58 57 56
10 11 13 14 16 17 18 20 22 24 25 24 24 29 21 28 24 21 35 38 32 37 36 34 35 37 36 35 36 34 36 37 37 38 38 38 42 48 54 57 58 58 58
11 12 14 16 18 20 22 23 24 25 27 28 24 18 16 17 37 34 30 34 29 31 33 41 35 35 36 37 38 36 36 36 38 40 42 42 42 42 44 48 51 54 55
14 16 19 21 23 25 26 27 27 28 29 30 30 25 27 31 23 33 24 29 31 27 30 37 42 42 41 38 39 40 40 39 37 39 41 44 45 45 44 45 47 50 53
20 22 25 27 28 28 28 28 28 27 27 28 27 27 29 29 26 25 40 29 33 29 30 35 37 35 32 34 40 38 37 35 35 37 36 38 40 43 45 44 45 47 50
28 30 31 31 31 31 30 30 29 28 27 27 27 26 24 21 22 25 33 41 39 39 32 30 35 36 34 33 33 33 33 33 33 34 34 37 40 39 42 40 44 45 47
30 30 30 30 30 29 28 28 28 28 28 28 26 26 25 24 29 27 29 34 34 38 37 31 27 27 28 30 31 35 37 37 39 39 38 37 38 40 40 41 41 43 47
28 28 28 27 27 27 27 28 29 29 29 28 28 28 30 31 30 27 26 29 36 34 37 36 29 27 26 28 33 38 40 41 42 43 42 40 41 42 42 41 39 46 48
27 26 25 24 24 25 27 29 31 32 32 33 33 33 33 32 28 26 25 25 27 28 37 52 37 34 30 30 33 39 41 39 34 34 35 36 39 41 42 42 39 40 46
23 22 23 24 26 28 30 32 33 34 34 35 33 34 32 30 28 26 26 28 25 26 28 46 49 38 30 42 46 40 38 43 41 40 40 41 41 39 38 39 40 39 39
22 23 25 26 28 31 33 34 35 36 37 35 34 33 29 23 34 35 32 30 32 32 32 50 40 39 42 47 46 42 44 43 43 38 38 39 38 41 40 39 38 37 36
22 24 26 29 31 33 35 36 37 36 35 34 33 26 28 31 35 30 31 30 31 28 33 39 39 45 42 39 38 44 43 34 39 42 41 39 37 38 40 37 34 32 33
24 26 29 32 34 35 36 36 36 36 34 33 30 30 35 33 33 32 30 31 28 33 33 35 41 41 40 37 41 41 39 43 39 37 35 36 33 37 42 43 39 34 32
27 29 31 33 34 36 36 36 36 35 34 33 31 34 32 30 30 32 32 32 34 36 36 36 38 40 40 41 40 43 43 40 41 36 33 31 37 35 31 35 38 37 35
29 31 34 35 36 36 36 36 33 33 34 35 36 34 32 31 30 30 32 38 37 38 40 40 40 39 39 41 43 43 40 42 40 34 37 46 34 35 31 30 29 27 33
32 34 36 37 37 36 35 34 33 32 31 32 35 34 32 33 31 32 35 34 34 38 41 41 43 41 43 44 46 42 44 40 39 32 34 38 40 46 40 35 39 40 40
36 37 36 36 37 36 36 35 30 28 31 31 31 34 37 33 34 37 36 36 37 36 38 40 42 41 41 47 43 45 44 34 41 45 40 43 41 40 36 33 29 28 30
37 37 37 36 38 38 36 32 28 29 32 30 31 32 33 35 38 35 39 36 42 51 42 39 40 42 41 44 42 42 42 45 42 43 33 36 35 42 39 35 30 35 38
37 38 38 39 39 39 35 30 29 32 34 33 33 34 31 39 37 36 36 40 48 48 45 38 38 38 37 40 35 35 38 35 37 41 29 32 34 27 25 26 28 26 28
38 39 40 39 37 37 34 28 29 32 36 37 36 32 35 36 37 30 38 44 46 46 45 47 48 45 35 34 29 29 31 35 36 41 21 22 31 31 18 15 16 12 22
Wind_Direction
308 309 312 312 314 317 317 313 309 307 304 303 301 299 299 299 296 293 291 288 285 281 277 274 270 267 265 262 256 251 254 260 264 264 258 255 254 252 251 251 250 249 248
307 311 313 313 314 314 313 311 310 309 307 305 302 303 301 299 296 291 287 284 282 278 276 275 273 270 267 265 259 256 253 254 259 262 264 263 262 260 257 254 254 254 253
308 308 307 309 311 311 309 308 308 307 305 304 304 303 302 299 296 293 290 286 283 281 277 274 273 272 270 268 264 260 257 254 252 259 261 262 262 261 260 259 258 257 256
301 303 305 306 308 307 306 308 307 306 305 305 304 302 301 300 300 300 296 295 296 294 292 286 280 275 272 270 268 263 261 259 256 251 254 259 259 259 259 259 259 258 258
304 303 301 301 301 303 305 304 304 304 303 301 302 300 298 299 300 298 297 299 299 297 294 293 294 286 275 270 267 265 262 262 261 259 255 252 254 258 258 257 257 257 257
310 310 308 306 306 309 311 311 309 307 306 304 305 300 300 297 296 296 296 297 297 298 297 293 294 291 287 279 275 270 266 263 263 261 259 257 255 253 255 257 258 258 256
332 332 328 325 323 323 325 325 322 321 320 324 320 318 313 311 314 309 308 303 300 301 297 295 296 294 294 290 281 273 268 270 269 266 261 258 257 257 256 255 254 256 257
1 355 348 340 333 329 327 326 328 326 324 329 322 321 315 309 310 306 301 302 297 301 299 294 296 293 296 291 292 286 277 273 272 268 266 261 259 260 258 257 256 254 253
359 348 340 335 332 330 329 329 328 329 326 322 320 315 316 302 308 302 295 296 302 296 294 296 291 294 296 293 294 291 288 283 277 271 268 268 266 263 261 259 256 254 254
353 347 342 337 334 331 328 327 325 322 320 321 317 312 302 303 309 308 299 292 293 293 289 288 295 295 294 289 289 290 290 287 284 278 273 269 266 262 260 260 258 255 253
349 345 341 338 335 334 331 329 327 325 322 321 321 318 314 309 309 303 308 306 299 296 291 291 294 292 291 289 294 292 292 290 288 287 284 277 270 265 260 258 257 258 255
343 339 336 335 334 333 333 332 331 329 327 323 321 319 318 315 311 308 306 306 305 304 299 292 290 294 294 294 294 294 295 294 294 292 288 281 279 272 270 263 259 259 256
337 334 334 334 335 335 335 336 335 333 331 327 323 317 314 310 310 308 304 301 300 302 302 298 298 295 295 295 292 293 296 295 292 290 288 284 280 278 279 271 266 263 257
336 335 337 337 338 338 338 337 336 335 334 331 327 323 317 315 315 309 304 306 304 304 303 299 302 302 301 298 296 298 296 293 291 286 282 284 284 282 279 275 275 265 265
335 333 334 336 338 339 338 338 337 336 332 331 327 325 325 324 322 314 310 304 308 307 308 299 303 304 298 301 305 310 308 305 298 291 288 284 283 281 282 281 275 270 266
331 334 337 339 341 341 339 337 334 331 328 327 325 324 323 322 319 316 305 305 303 306 301 297 300 299 297 302 304 306 303 302 296 294 292 284 282 283 281 279 277 275 271
336 338 339 340 340 338 336 333 331 328 326 326 326 325 320 317 318 317 312 307 304 304 295 295 295 293 299 304 303 301 302 300 299 296 298 294 288 278 278 278 278 275 272
338 339 340 340 338 337 335 332 328 328 328 326 324 320 317 318 320 317 314 310 305 306 301 293 294 301 302 302 302 303 308 296 293 292 296 292 285 280 275 274 274 271 272
338 339 339 338 337 335 332 330 329 327 326 323 321 316 318 319 318 316 316 315 312 312 309 301 299 302 302 302 303 303 301 299 297 296 298 297 290 278 273 268 269 269 270
339 338 338 336 335 334 332 331 329 326 323 321 319 318 317 317 316 317 316 314 314 312 308 303 301 301 300 302 300 300 297 294 295 299 297 290 295 293 285 275 268 266 271
338 338 337 336 336 334 332 330 326 323 321 320 320 319 318 318 317 314 313 314 312 310 307 305 301 300 300 303 299 299 294 294 294 289 297 301 299 299 286 273 271 271 266
336 336 336 335 332 331 329 327 325 322 320 319 320 322 319 320 320 315 315 313 309 310 310 309 307 302 300 300 299 298 293 291 290 298 298 292 286 292 286 287 274 267 270
335 334 333 333 331 331 331 330 326 322 316 318 319 319 321 319 317 320 319 311 312 312 307 302 300 299 304 302 301 302 300 292 300 295 294 293 295 286 290 287 287 287 275
333 333 333 333 332 333 333 331 327 321 320 320 319 318 315 319 321 318 311 314 316 313 311 307 302 300 297 298 297 295 296 297 297 295 293 289 286 286 280 283 283 280 281
331 332 333 334 333 333 335 332 329 325 323 320 319 319 319 321 318 312 316 322 318 313 312 310 307 301 298 296 295 296 294 300 296 296 295 291 298 299 306 291 282 283 284
331 331 331 332 334 332 335 333 330 326 321 319 321 321 320 319 316 318 322 321 313 313 317 314 308 308 309 313 304 302 296 296 294 296 301 281 289 298 297 283 272 283 289
Height
1507 1507 1506 1506 1505 1504 1503 1501 1499 1497 1495 1493 1491 1489 1487 1485 1483 1481 1478 1476 1476 1475 1473 1472 1472 1471 1471 1471 1471 1473 1473 1473 1473 1473 1473 1473 1474 1475 1476 1476 1476 1477 1478
1505 1504 1504 1503 1502 1501 1499 1497 1494 1492 1489 1487 1485 1483 1480 1478 1476 1473 1471 1468 1467 1467 1466 1464 1463 1463 1462 1462 1462 1462 1463 1465 1464 1463 1464 1464 1465 1466 1467 1468 1469 1469 1470
1502 1501 1500 1499 1498 1496 1494 1492 1489 1486 1483 1481 1478 1476 1473 1471 1468 1466 1463 1460 1458 1456 1457 1456 1455 1454 1453 1452 1452 1452 1452 1453 1454 1454 1454 1454 1455 1456 1457 1457 1458 1459 1460
1499 1498 1496 1495 1494 1492 1490 1487 1485 1481 1478 1475 1472 1470 1466 1462 1460 1457 1455 1453 1451 1449 1446 1445 1445 1444 1443 1442 1442 1442 1442 1441 1442 1443 1443 1442 1443 1444 1445 1446 1446 1448 1449
1495 1494 1493 1491 1489 1487 1485 1482 1479 1475 1472 1468 1464 1461 1458 1455 1452 1450 1447 1445 1443 1441 1438 1436 1434 1433 1432 1431 1430 1430 1429 1429 1429 1429 1430 1431 1431 1431 1432 1433 1434 1435 1436
1491 1490 1489 1487 1485 1483 1480 1477 1473 1470 1466 1462 1457 1453 1451 1448 1445 1441 1439 1437 1435 1432 1430 1428 1426 1423 1421 1421 1419 1418 1418 1418 1418 1418 1418 1419 1420 1421 1420 1420 1420 1422 1423
1489 1487 1486 1484 1482 1479 1476 1473 1469 1465 1462 1458 1452 1447 1442 1439 1437 1435 1432 1429 1427 1424 1421 1419 1417 1414 1412 1410 1409 1408 1407 1406 1405 1404 1404 1405 1406 1406 1407 1409 1409 1410 1409
1487 1486 1484 1482 1480 1478 1475 1471 1466 1461 1459 1456 1451 1445 1436 1433 1432 1429 1426 1423 1419 1417 1413 1411 1408 1406 1403 1401 1399 1398 1397 1396 1394 1393 1391 1391 1391 1392 1392 1393 1394 1395 1396
1487 1485 1483 1481 1478 1474 1470 1466 1462 1458 1453 1452 1450 1447 1437 1429 1423 1422 1419 1416 1412 1409 1405 1403 1400 1397 1395 1392 1389 1388 1386 1385 1383 1382 1381 1380 1378 1377 1378 1378 1379 1380 1381
1485 1483 1481 1478 1474 1471 1467 1463 1459 1456 1451 1447 1444 1444 1440 1433 1424 1405 1411 1408 1406 1402 1398 1395 1390 1387 1384 1382 1379 1376 1374 1374 1371 1369 1368 1367 1366 1364 1363 1363 1364 1365 1367
1483 1481 1477 1474 1470 1466 1463 1459 1455 1452 1448 1443 1439 1434 1431 1427 1423 1417 1394 1397 1397 1394 1390 1386 1382 1378 1375 1371 1368 1366 1364 1361 1359 1357 1355 1354 1352 1352 1351 1351 1351 1351 1353
1480 1476 1473 1469 1465 1461 1457 1453 1449 1446 1442 1438 1434 1430 1426 1422 1418 1414 1405 1392 1387 1383 1381 1378 1374 1370 1366 1363 1359 1356 1354 1350 1348 1347 1343 1341 1338 1333 1334 1336 1338 1339 1340
1476 1472 1468 1465 1461 1457 1453 1449 1445 1441 1437 1433 1429 1424 1421 1417 1413 1408 1401 1390 1383 1375 1370 1369 1367 1363 1359 1356 1352 1348 1344 1341 1338 1336 1333 1333 1330 1326 1324 1324 1322 1325 1327
1473 1469 1465 1461 1457 1454 1449 1445 1441 1436 1431 1427 1423 1419 1415 1411 1406 1401 1396 1389 1377 1370 1363 1358 1359 1356 1353 1348 1343 1339 1334 1330 1327 1324 1322 1320 1318 1316 1315 1312 1311 1311 1311
1470 1466 1462 1459 1455 1451 1446 1440 1436 1431 1426 1421 1417 1412 1408 1403 1398 1394 1390 1385 1379 1367 1355 1343 1349 1348 1345 1340 1335 1331 1326 1320 1315 1312 1310 1308 1306 1302 1302 1302 1301 1300 1298
1467 1463 1459 1455 1451 1446 1441 1436 1431 1426 1420 1416 1411 1406 1401 1397 1392 1388 1383 1378 1374 1368 1359 1346 1337 1338 1333 1327 1325 1321 1316 1311 1305 1302 1299 1296 1294 1291 1289 1288 1286 1286 1285
1463 1459 1454 1450 1446 1441 1437 1431 1426 1420 1414 1408 1404 1398 1394 1390 1384 1379 1374 1370 1364 1360 1352 1334 1335 1327 1322 1317 1312 1309 1305 1300 1294 1290 1288 1284 1281 1279 1276 1275 1273 1272 1271
1459 1455 1451 1446 1441 1437 1431 1425 1419 1413 1407 1402 1397 1392 1387 1381 1375 1370 1365 1359 1355 1350 1344 1332 1324 1318 1315 1310 1303 1296 1291 1288 1284 1279 1276 1274 1269 1267 1263 1262 1260 1259 1260
1455 1451 1446 1441 1436 1431 1425 1420 1413 1407 1402 1397 1392 1386 1379 1374 1368 1364 1358 1352 1347 1342 1336 1328 1317 1312 1306 1301 1293 1287 1282 1276 1272 1267 1263 1260 1256 1254 1250 1249 1249 1248 1248
1450 1446 1442 1437 1431 1426 1419 1413 1407 1401 1396 1390 1384 1379 1373 1368 1363 1357 1352 1346 1340 1333 1326 1319 1310 1303 1297 1290 1285 1278 1268 1266 1259 1257 1254 1250 1245 1240 1238 1236 1235 1235 1237
1446 1441 1436 1431 1425 1420 1414 1407 1401 1395 1388 1382 1377 1372 1367 1362 1357 1353 1347 1339 1333 1325 1318 1310 1301 1294 1287 1281 1275 1268 1261 1254 1249 1248 1242 1238 1233 1230 1227 1225 1224 1224 1223
1441 1435 1430 1425 1420 1414 1408 1402 1396 1388 1382 1376 1370 1364 1360 1355 1350 1345 1339 1333 1327 1319 1311 1304 1295 1288 1279 1274 1266 1260 1253 1247 1240 1240 1232 1226 1227 1220 1217 1214 1212 1212 1212
1434 1430 1425 1420 1414 1408 1401 1395 1389 1383 1377 1371 1365 1359 1352 1348 1343 1335 1328 1323 1316 1310 1306 1298 1288 1280 1272 1265 1258 1250 1243 1237 1234 1228 1223 1215 1214 1208 1206 1203 1202 1201 1202
1429 1424 1419 1414 1407 1400 1394 1388 1383 1378 1371 1365 1360 1354 1347 1340 1335 1329 1320 1311 1306 1299 1292 1285 1280 1271 1264 1255 1251 1245 1237 1229 1222 1215 1215 1207 1204 1198 1196 1193 1192 1192 1191
1424 1418 1413 1407 1401 1394 1389 1383 1379 1372 1364 1358 1353 1348 1341 1334 1329 1323 1314 1304 1295 1286 1280 1275 1268 1261 1254 1245 1241 1234 1226 1222 1212 1203 1206 1201 1193 1189 1186 1183 1183 1181 1179
1418 1412 1406 1401 1395 1388 1382 1379 1374 1367 1359 1352 1347 1340 1335 1329 1322 1314 1308 1299 1287 1277 1269 1260 1252 1246 1241 1234 1229 1226 1219 1213 1206 1194 1198 1194 1188 1189 1178 1174 1174 1173 1171